Location: Bemmer
(51.5498°N, 5.6249°E)
Time: 17:37:46
(UTC+00:00)

Cosmos 2369 Rocket - Pass Details

Date: 03 March 2021
Orbit: 829 x 852 km, 71.0° (Epoch: 12 April)

Event Time Altitude Azimuth Distance (km) Brightness Sun altitude
Rises 19:43:25 0° 328° (NNW) 3,384 6.1 -22.6°
Reaches altitude 10° 19:46:52 10° 349° (N) 2,448 5.0 -23.1°
Maximum altitude 19:50:18 16° 28° (NNE) 2,041 4.1 -23.6°
Enters shadow 19:51:10 16° 38° (NE) 2,070 4.0 -23.7°
